Powrót do katalogu

STARLINK-3685

AktywnyŁącznośćVLEO
NORAD 52115·PAYLOAD·🇺🇸 United States

Wystrzelony Mar 19, 2022 z Cape Canaveral Space Force Station

Loading…

Następne Przeloty (najbliższe 24 godziny)

TLE

ŚwieżeSource: CelesTrak SupGP

Epoka: Sep 14, 2026, 21:15 UTC

1 52115C 22029AD  26257.88590278  .00017373  00000+0  51334-3 0  2574
2 52115  53.1566 293.8243 0001203  88.9316  65.0129 15.34379890    17

Śledź STARLINK-3685 w czasie rzeczywistym z AllMySat

Download on the App Store